www.pogodaiklimat.ru

Погода и климат >> Архив погоды >> Бенин >> Натитингу


ПОГОДА в Натитингу

  • Прогноз погоды в Натитингу
  • Монитор погоды в Натитингу

АРХИВ ПОГОДЫ в Натитингу

Время (UTC), дата Ветер
(напр.,м/с)
 
Видим.   Явления Облачность Т
(С)
Тd
(С)
f
(%)
Тe
(С)
Тes
(С)
Комфортность P
(гПа)
Po
(гПа)
Тmin
(С)
Tmax
(С)
R
(мм)
R24
(мм)
S
(см)
09 14.04 ЮЗ 4 10 км 8/0
[Ac trans Ci sp]
+29.5 +23.3 69 +40 +46 очень
душно
1009.9 963.1
12 14.04 С 3 10 км 8/5 600 м
[Cu med, cong Ac trans Ci sp]
+35.1 +20.4 42 +41 +48 опасность
перегрева
1008.8 962.2
15 14.04 С 4 10 км 9/5 600 м
[Cu med, cong Ci sp]
+37.0 +20.9 39 +44 +47 опасность
перегрева
1005.7 959.3
18 14.04 Ю 3 10 км 9/4 600 м
[Cu med, cong Ac trans Ci sp]
+33.8 +22.8 53 +44 +44 опасность
перегрева
1006.9 960.3 +37.6
21 14.04 ЮВ 2 10 км 8/0
[Ci sp]
+30.2 +20.3 55 +37 +37 очень
душно
1008.6 961.9
00 15.04 ЮВ 2 10 км 8/0
[Ci sp]
+28.5 +21.2 65 +36 +36 очень
душно
1008.3 961.9
03 15.04 Ю 3 10 км 8/0
[Ci sp]
+26.1 +23.1 84 +35 +35 очень
душно
1006.9 960.5
06 15.04 ЮВ 1 10 км 8/0
[Ac trans Ci sp]
+24.5 +22.5 89 +32 +32 очень
душно
1008.7 961.9 +24.2
09 15.04 Ю 2 10 км 9/3 600 м
[Cu med, cong Ac trans Ci sp]
+28.7 +22.7 70 +38 +43 очень
душно
1010.4 963.6
12 15.04 Ю 3 10 км 9/3 600 м
[Cu med, cong Ac trans Ci sp]
+34.1 +24.2 56 +46 +53 опасность
перегрева
1009.0 962.5
15 15.04 З 4 10 км 9/4 600 м
[Cu med, cong Ac trans Ci sp]
+30.0 +20.4 56 +37 +39 очень
душно
1007.5 960.5
21 15.04 Ю 1 10 км 8/0
[Ci sp]
+28.0 +22.2 71 +37 +37 очень
душно
1010.0 962.1
00 16.04 Ю 1 10 км 8/0
[Ac trans Ci sp]
+28.1 +22.3 71 +37 +37 очень
душно
1008.3 961.8
03 16.04 Ю 2 10 км 8/0
[Ci sp]
+28.7 +21.3 64 +36 +36 очень
душно
1007.4 960.7
09 16.04 З 2 10 км 9/0
[Ac trans Ci sp]
+30.0 +23.6 69 +41 +48 опасность
перегрева
1010.4 963.5
12 16.04 З 3 10 км 8/0
[Ac trans Ci sp]
+34.8 +23.9 53 +46 +61 опасность
перегрева
1008.2 961.8
15 16.04 С 4 8000 м мгла 9/0
[Ac As]
+38.6 +11.3 20 +38 +41 очень
жарко
1005.4 959.4
18 16.04 СВ 2 8000 м мгла 9/0
[Ac As]
+35.8 +12.8 25 +36 +36 очень
жарко
1006.0 959.7 +39.0
21 16.04 В 1 8000 м мгла 8/0
[Ac trans Ci sp]
+33.5 +15.6 34 +36 +36 очень
душно
1007.7 961.3
00 17.04 В 1 8000 м мгла 8/0
[Ci sp]
+31.0 +20.7 54 +38 +38 очень
душно
1008.0 961.5
03 17.04 Ю 1 8000 м мгла 8/0
[Ci sp]
+28.0 +20.6 64 +35 +35 очень
душно
1005.8 959.8
06 17.04 ЮВ 1 8000 м мгла 8/0
[Ac trans Ci sp]
+26.0 +20.8 73 +33 +33 очень
душно
1007.1 960.6 +26.0
09 17.04 ЮЗ 2 10 км 9/0
[Ac trans Ci sp]
+30.4 +22.4 62 +39 +46 очень
душно
1008.9 962.5
12 17.04 З 3 10 км 8/3 600 м
[Cu med, cong Ac trans Ci sp]
+35.3 +21.2 44 +43 +51 опасность
перегрева
1007.6 961.5
15 17.04 Ю 2 10 км гроза без осадков 9/8 600 м
[Cb cap Ac trans Ci sp]
+31.0 +25.1 71 +45 +46 опасность
перегрева
1006.0 959.4
18 17.04 ЮВ 1 10 км {гроза, дождь} 8/0
[Ac trans Ci sp]
+31.5 +23.8 64 +43 +43 опасность
перегрева
1005.5 958.8 +37.8 2
21 17.04 ЮВ 2 10 км 9/0
[Ac trans Ci sp]
+29.5 +23.4 70 +40 +40 очень
душно
1007.4 960.8
00 18.04 ЮВ 2 10 км 8/0
[Ac trans Ci sp]
+29.6 +23.1 68 +40 +40 очень
душно
1007.1 960.9
03 18.04 Ю 2 10 км 6/0
[Ci sp]
+28.7 +22.7 70 +38 +38 очень
душно
1006.2 959.6
06 18.04 ЮВ 1 10 км 9/0
[Ac trans Ci sp]
+26.2 +23.6 86 +36 +36 очень
душно
1007.6 960.8 +25.9 2
09 18.04 Ю 3 10 км 9/0
[Ac As Ci sp]
+29.5 +24.3 74 +41 +47 опасность
перегрева
1008.9 962.1
12 18.04 С 1 10 км 9/4 600 м
[Cu med, cong Ci sp]
+35.0 +21.0 44 +42 +55 опасность
перегрева
1007.4 961.1
15 18.04 Ю 3 10 км 9/5 600 м
[Cu med, cong Ci sp]
+38.5 +25.6 48 +53 +56 опасность
перегрева
1003.7 957.8
18 18.04 ЮЗ 1 10 км 8/0
[Ac trans Ci sp]
+34.2 +21.1 46 +41 +41 опасность
перегрева
1004.3 957.8 +38.7
21 18.04 ЮВ 2 10 км 8/0
[Ci sp]
+30.5 +23.4 66 +41 +41 опасность
перегрева
1006.4 959.8
00 19.04 ЮВ 1 10 км 8/0
[Ci sp]
+30.0 +20.9 58 +37 +37 очень
душно
1006.4 960.2
03 19.04 Ю 1 10 км 8/0
[Ci sp]
+28.5 +22.0 68 +37 +37 очень
душно
1005.2 959.2
06 19.04 Ю 1 10 км 8/0
[Ac trans Ci sp]
+26.5 +22.9 81 +35 +35 очень
душно
1007.3 960.8 +25.1
09 19.04 Ю 3 10 км 9/0
[Cs]
+30.9 +22.8 62 +41 +49 опасность
перегрева
1009.7 963.0
12 19.04 ЮВ 3 10 км 8/3 600 м
[Cu med, cong Ci sp]
+34.1 +22.1 50 +43 +54 опасность
перегрева
1009.1 962.7
15 19.04 ЮЗ 2 10 км 8/1 600 м
[Cu med, cong Ci sp]
+37.0 +21.2 40 +44 +52 опасность
перегрева
1005.3 959.2
18 19.04 Ю 2 10 км 8/0
[Ci sp]
+35.5 +20.2 41 +42 +42 опасность
перегрева
1006.1 959.7 +37.5
21 19.04 ЮВ 2 10 км 8/0
[Ci sp]
+32.0 +20.4 50 +39 +39 очень
душно
1008.8 962.3
00 20.04 Ю 3 10 км 8/0
[Ci sp]
+29.8 +22.2 64 +39 +39 очень
душно
1008.9 962.5
03 20.04 Ю 2 10 км 8/0
[Ci sp]
+28.5 +22.8 71 +38 +38 очень
душно
1006.3 960.3
06 20.04 Ю 3 10 км 8/0
[Ac trans Ci sp]
+27.1 +23.1 79 +36 +37 очень
душно
1008.1 961.7 +26.0
09 20.04 Ю 3 10 км 9/3 600 м
[Cu med, cong Ci sp]
+30.0 +23.6 69 +41 +47 опасность
перегрева
1009.6 963.0
12 20.04 Ю 4 10 км 9/3 600 м
[Cu med, cong Ci sp]
+34.0 +22.7 52 +44 +52 опасность
перегрева
1007.4 961.0
15 20.04 Ю 2 10 км 9/4 600 м
[Cu med, cong Ci ing]
+35.4 +22.0 46 +44 +49 опасность
перегрева
1005.5 959.2
18 20.04 В 2 10 км 9/1 600 м
[Cu hum Ac cuf Ci sp]
+34.4 +19.0 40 +39 +39 очень
душно
1005.5 959.1 +36.5
21 20.04 штиль 0 10 км 6/0
[Ci sp]
+31.5 +23.0 61 +42 +42 опасность
перегрева
1007.3 960.8
00 21.04 ЮЗ 2 10 км 8/0
[Ci sp]
+30.0 +21.3 60 +38 +38 очень
душно
1007.9 961.5
03 21.04 Ю 3 10 км 8/0
[Ac trans Ci sp]
+28.5 +22.0 68 +37 +37 очень
душно
1006.1 959.8
06 21.04 Ю 4 10 км 8/0
[Ci sp]
+27.0 +22.7 77 +36 +36 очень
душно
1006.3 959.8 +27.0

 

Местоположение метеостанции Натитингу (Бенин): широта 10.32 долгота 1.38 высота над уровнем моря 461 м.

В архиве по умолчанию представлена погода в Натитингу за последнюю неделю. Архивные данные за месяц целиком и за предыдущие месяцы, начиная с января 2011 года, Вы можете получить, выбрав интересующий диапазон дат из раскрывающегося списка и нажав кнопку "Ввод!".


*Определитесь, кто Вы:
робот инопланетянин человек

Внимание! Время в таблицах - всемирное. Для получения местного времени необходимо прибавить поправку, которая равна 1 ч.

Смотрите также архив погоды в соседних городах и на ближайших метеорологических станциях:

Погода в Ньамтугу (Того) (68 км)
Погода в Каре (Того) (89 км)
Погода в Манго (Того) (100 км)
Погода в Дапаоне (Того) (128 км)
Погода в Сокоде (Того) (151 км)
Погода в Параку (Бенин) (174 км)
Погода в Йенди (Гана) (181 км)
Погода в Канди (Бенин) (192 км)
Погода в Фада-Нгурме (Буркина-Фасо) (220 км)
Погода в Тамале (Гана) (261 км)

Пояснения к столбцам:

Ветер - указаны скорость ветра в м/с - средняя за 10 мин, порывы в срок и между сроками (в фигурных скобках) и направление, откуда дует ветер: С - северный, СВ - северо-восточный, В - восточный, ЮВ - юго-восточный, Ю - южный, ЮЗ - юго-западный, З - западный, СЗ - северо-западный.
Видимость - горизонтальная дальность видимости в метрах или километрах. При видимости от 1 до 10 км при отсутствии осадков обычно наблюдается дымка, при ухудшении видимости до 1 км и менее - туман. В сухую погоду видимость может ухудшаться дымом, пылью или мглою.
Явления - указаны атмосферные явления, наблюдавшиеся в срок или в последний час перед сроком; фигурными скобками обозначены явления, наблюдавшиеся между сроками (за 1-3 часа до срока); квадратными скобками обозначены град или гололедные отложения с указанием их диаметра в мм.
Облачность - указаны через наклонную черту общая и нижняя облачность в баллах и высота нижней границы облаков в метрах; квадратными скобками обозначены формы облаков: Ci - перистые, Cs - перисто-слоистые, Cc - перисто-кучевые, Ac - высококучевые, As - высокослоистые, Sc - слоисто-кучевые, Ns - слоисто-дождевые, Cu - кучевые, Cb - кучево-дождевые. Подробнее классификацию облаков см. в Атласе облаков (PDF).
T - Температура воздуха - температура, измеренная на высоте 2 м над землей.
Td - Температура точки росы - температура, при понижении до которой содержащийся в воздухе водяной пар достигнет насыщения.
f - Относительная влажность воздуха - влажноcть воздуха, измеренная на высоте 2 м над землей.
Te - Эффективная температура - температура, которую ощущает одетый по сезону человек в тени. Характеристика душности погоды. При расчете учитывается влияние влажности воздуха и скорости ветра на теплоощущения человека.
Tes - Эффективная температура на солнце - температура, которую ощущает человек, с поправкой на солнечный нагрев. Характеристика знойности погоды. Зависит от высоты солнца над горизонтом, облачности и скорости ветра. Ночью, в пасмурную погоду, а также при ветре 12 м/с и более поправка равна нулю.
P - Атмосферное давление - приведенное к уровню моря атмосферное давление.
Po - Атмосферное давление - измеренное на уровне метеостанции атмосферное давление.
Tmin - Минимальная температура - минимум температуры воздуха на высоте 2 м над землей.
Tmax - Максимальная температура - максимум температуры воздуха на высоте 2 м над землей.
R - Количество осадков - Количество выпавших осадков за период времени, мм. При наведении курсора мыши на число - период времени, за который выпало указанное количество осадков.
R24 - Количество осадков - Количество выпавших осадков за 24 часа, мм.
S - Снежный покров - Высота снежного покрова, см. При наведении курсора мыши на число - состояние снежного покрова и степень покрытия местности в баллах.